Location: Baia Mare
(47.6567°N, 23.5850°E)
Time: 07:03:10
(UTC+03:00)

ISS - Pass Details

Date: 28 March 2020
Orbit: 417 x 423 km, 51.6° (Epoch: 29 March)

Event Time Altitude Azimuth Distance (km) Brightness Sun altitude
Rises 20:55:29 0° 291° (WNW) 2,362 1.6 -20.7°
Reaches altitude 10° 20:57:37 10° 296° (WNW) 1,498 0.2 -21.0°
Enters shadow 21:00:41 53° 356° (N) 518 -3.2 -21.5°
